Main page
METAR-TAF:

METAR-TAF

Airports :

Zabol, Iran

Zabol Airport

latitude: 31-20N, longitude: 061-29E, elevation: 489 m

Current weather observation

The report was made 26 minutes ago, at 16:00 UTC
Wind 4 kt from the Southwest
Temperature 13°C
Humidity 33%
Pressure 1022 hPa
Visibility 10 km or more
no clouds below 1500 m and no cumulonimbus

METAR: OIZB 181600Z 23004KT CAVOK 13/M03 Q1022

Time: 19:56 (16:26 UTC)


TAF: missing

Weather observations and forecasts of more than 4000 airports (METAR and TAF reports).

The available stations are represented by yellow and red dots on the map.

Hover mouse over dot to see the name of the station.

Then click to see weather observations and forecasts.

To change the map : click on the green buttons with a black cross to zoom in, on the green button with a dash to zoom out, or on the green arrows for adjacent maps.


METAR-TAF: